UZB3502 UTAA-UZTT

Flight info

Callsign UZB3502
Flight time 1h 18m
Altitude 39000
Route BUR11D BUROT B114 POGON/K0828F410 L143 TADEN Z580 OGRIP OGRIP2T
Aircraft A332/H-SDE3GHIJ2J3J5M1RVWXY/LB2D1

Departure

Time 2026-04-25 11:24
Airport Ashgabat International Airport (UTAA)

Arrival

Time 2026-04-25 12:42
Airport Tashkent International Airport (UZTT)
Time Latitude Longitude Altitude Speed Heading
2026-04-25 11:08 37.98489 58.36754 674 ft 0 kts 194°
2026-04-25 11:15 37.98502 58.36758 674 ft 3 kts 194°
2026-04-25 11:15 37.98522 58.36765 671 ft 3 kts 194°
2026-04-25 11:15 37.98543 58.36771 672 ft 3 kts 194°
2026-04-25 11:15 37.98566 58.36779 674 ft 3 kts 180°
2026-04-25 11:16 37.98602 58.36753 674 ft 0 kts 116°
2026-04-25 11:18 37.98601 58.36754 674 ft 1 kts 116°
2026-04-25 11:19 37.98588 58.36786 674 ft 7 kts 119°
2026-04-25 11:19 37.98557 58.36856 674 ft 11 kts 119°
2026-04-25 11:19 37.98516 58.36948 674 ft 13 kts 119°
2026-04-25 11:19 37.98469 58.37053 674 ft 14 kts 119°
2026-04-25 11:20 37.98417 58.37170 674 ft 16 kts 119°
2026-04-25 11:20 37.98372 58.37272 672 ft 13 kts 117°
2026-04-25 11:20 37.98379 58.37389 674 ft 14 kts 75°
2026-04-25 11:20 37.98397 58.37493 674 ft 11 kts 90°
2026-04-25 11:21 37.98366 58.37589 674 ft 13 kts 120°
2026-04-25 11:21 37.98321 58.37689 674 ft 14 kts 120°
2026-04-25 11:21 37.98270 58.37802 674 ft 15 kts 119°
2026-04-25 11:21 37.98236 58.37893 674 ft 10 kts 104°
2026-04-25 11:22 37.98250 58.37982 674 ft 11 kts 59°
2026-04-25 11:22 37.98290 58.38026 673 ft 12 kts 29°
2026-04-25 11:22 37.98385 58.37999 673 ft 12 kts 303°
2026-04-25 11:22 37.98401 58.37965 673 ft 0 kts 299°
2026-04-25 11:23 37.98430 58.37898 672 ft 33 kts 299°
2026-04-25 11:23 37.98658 58.37388 673 ft 97 kts 299°
2026-04-25 11:23 37.99084 58.36425 674 ft 152 kts 299°
2026-04-25 11:23 37.99692 58.35113 943 ft 183 kts 302°
2026-04-25 11:24 38.00322 58.33752 1923 ft 173 kts 303°
2026-04-25 11:24 38.00900 58.32440 2805 ft 173 kts 301°
2026-04-25 11:24 38.01540 58.30996 3168 ft 205 kts 301°
2026-04-25 11:24 38.02299 58.29284 3370 ft 240 kts 301°
2026-04-25 11:25 38.03253 58.27447 3840 ft 256 kts 313°
2026-04-25 11:25 38.04716 58.26154 4602 ft 263 kts 339°
2026-04-25 11:25 38.06527 58.25981 5344 ft 273 kts 11°
2026-04-25 11:25 38.08217 58.27112 6084 ft 284 kts 44°
2026-04-25 11:26 38.09392 58.29159 6843 ft 291 kts 59°
2026-04-25 11:26 38.10383 58.31413 7703 ft 294 kts 61°
2026-04-25 11:26 38.11368 58.33707 8573 ft 298 kts 61°
2026-04-25 11:26 38.12377 58.36021 9477 ft 301 kts 61°
2026-04-25 11:27 38.13411 58.38363 10255 ft 308 kts 60°
2026-04-25 11:27 38.14499 58.40807 10631 ft 329 kts 60°
2026-04-25 11:27 38.15668 58.43422 10935 ft 351 kts 60°
2026-04-25 11:27 38.16495 58.45268 11258 ft 360 kts 60°
2026-04-25 11:28 38.18159 58.48980 12191 ft 369 kts 60°
2026-04-25 11:28 38.19436 58.51829 12963 ft 373 kts 60°
2026-04-25 11:28 38.20729 58.54716 13692 ft 379 kts 60°
2026-04-25 11:28 38.22042 58.57648 14337 ft 384 kts 60°
2026-04-25 11:29 38.23370 58.60620 14997 ft 389 kts 60°
2026-04-25 11:29 38.24713 58.63626 15669 ft 393 kts 60°
2026-04-25 11:29 38.26071 58.66667 16329 ft 398 kts 59°
2026-04-25 11:29 38.27446 58.69751 16990 ft 403 kts 59°
2026-04-25 11:30 38.28833 58.72866 17644 ft 407 kts 59°
2026-04-25 11:30 38.30236 58.76018 18258 ft 412 kts 59°
2026-04-25 11:30 38.31655 58.79211 18810 ft 416 kts 59°
2026-04-25 11:30 38.33087 58.82435 19378 ft 420 kts 59°
2026-04-25 11:31 38.34532 58.85693 19927 ft 424 kts 59°
2026-04-25 11:31 38.35989 58.88980 20480 ft 428 kts 59°
2026-04-25 11:31 38.37459 58.92300 21020 ft 432 kts 60°
2026-04-25 11:31 38.38939 58.95648 21543 ft 436 kts 60°
2026-04-25 11:32 38.40434 58.99032 22070 ft 440 kts 60°
2026-04-25 11:32 38.41429 59.01286 22414 ft 442 kts 60°
2026-04-25 11:32 38.42944 59.04721 22943 ft 446 kts 60°
2026-04-25 11:32 38.44468 59.08182 23442 ft 450 kts 60°
2026-04-25 11:33 38.46005 59.11674 23848 ft 453 kts 60°
2026-04-25 11:33 38.47551 59.15201 24253 ft 457 kts 60°
2026-04-25 11:33 38.49202 59.18686 24646 ft 460 kts 55°
2026-04-25 11:33 38.51645 59.23131 25179 ft 464 kts 52°
2026-04-25 11:34 38.52949 59.25375 25451 ft 466 kts 52°
2026-04-25 11:34 38.54904 59.28696 25850 ft 470 kts 51°
2026-04-25 11:34 38.56873 59.32053 26221 ft 474 kts 51°
2026-04-25 11:34 38.58795 59.35489 26623 ft 477 kts 56°
2026-04-25 11:35 38.60441 59.39198 27019 ft 481 kts 61°
2026-04-25 11:35 38.61985 59.43008 27394 ft 485 kts 63°
2026-04-25 11:35 38.63482 59.46887 27768 ft 488 kts 63°
2026-04-25 11:35 38.64958 59.50814 28143 ft 491 kts 64°
2026-04-25 11:36 38.66431 59.54774 28532 ft 495 kts 64°
2026-04-25 11:36 38.67912 59.58761 28896 ft 498 kts 64°
2026-04-25 11:36 38.69406 59.62775 29266 ft 501 kts 64°
2026-04-25 11:36 38.70910 59.66805 29659 ft 503 kts 64°
2026-04-25 11:37 38.72428 59.70867 30002 ft 507 kts 64°
2026-04-25 11:37 38.73956 59.74951 30275 ft 511 kts 63°
2026-04-25 11:37 38.75494 59.79066 30573 ft 514 kts 63°
2026-04-25 11:37 38.77042 59.83209 30857 ft 517 kts 63°
2026-04-25 11:38 38.78597 59.87378 31142 ft 520 kts 63°
2026-04-25 11:38 38.80139 59.91518 31453 ft 523 kts 63°
2026-04-25 11:38 38.81707 59.95735 31760 ft 525 kts 63°
2026-04-25 11:38 38.83277 59.99965 32133 ft 526 kts 63°
2026-04-25 11:39 38.84848 60.04204 32542 ft 526 kts 63°
2026-04-25 11:39 38.86416 60.08442 32913 ft 527 kts 63°
2026-04-25 11:39 38.87988 60.12695 33273 ft 527 kts 62°
2026-04-25 11:39 38.89557 60.16947 33666 ft 528 kts 62°
2026-04-25 11:40 38.91125 60.21202 34053 ft 527 kts 62°
2026-04-25 11:40 38.92688 60.25451 34396 ft 526 kts 62°
2026-04-25 11:40 38.94252 60.29705 34701 ft 527 kts 62°
2026-04-25 11:40 38.95813 60.33961 35018 ft 527 kts 62°
2026-04-25 11:41 38.97375 60.38222 35312 ft 527 kts 62°
2026-04-25 11:41 38.98936 60.42488 35608 ft 528 kts 62°
2026-04-25 11:41 39.00497 60.46760 35921 ft 528 kts 62°
2026-04-25 11:41 39.02052 60.51024 36281 ft 526 kts 62°
2026-04-25 11:42 39.03603 60.55281 36588 ft 526 kts 62°
2026-04-25 11:42 39.05155 60.59546 36866 ft 527 kts 62°
2026-04-25 11:42 39.06706 60.63816 37131 ft 527 kts 62°
2026-04-25 11:42 39.08256 60.68087 37422 ft 527 kts 62°
2026-04-25 11:43 39.09804 60.72360 37698 ft 527 kts 62°
2026-04-25 11:43 39.11352 60.76640 37984 ft 527 kts 62°
2026-04-25 11:43 39.12894 60.80912 38365 ft 525 kts 62°
2026-04-25 11:43 39.14429 60.85169 38637 ft 524 kts 62°
2026-04-25 11:44 39.15964 60.89430 38819 ft 525 kts 62°
2026-04-25 11:44 39.17506 60.93696 38864 ft 525 kts 61°
2026-04-25 11:44 39.20681 61.02156 38870 ft 524 kts 60°
2026-04-25 11:45 39.23873 61.10518 38874 ft 522 kts 60°
2026-04-25 11:45 39.27065 61.18918 38879 ft 521 kts 60°
2026-04-25 11:46 39.30240 61.27327 38887 ft 521 kts 60°
2026-04-25 11:46 39.33404 61.35747 38886 ft 521 kts 60°
2026-04-25 11:47 39.36548 61.44143 38881 ft 518 kts 60°
2026-04-25 11:47 39.39682 61.52533 38878 ft 518 kts 60°
2026-04-25 11:48 39.42810 61.60926 38889 ft 518 kts 60°
2026-04-25 11:48 39.45934 61.69334 38889 ft 519 kts 60°
2026-04-25 11:49 39.49054 61.77754 38888 ft 519 kts 60°
2026-04-25 11:49 39.52167 61.86182 38887 ft 519 kts 60°
2026-04-25 11:50 39.55276 61.94618 38887 ft 519 kts 60°
2026-04-25 11:50 39.58373 62.03052 38883 ft 518 kts 60°
2026-04-25 11:51 39.61463 62.11489 38894 ft 518 kts 60°
2026-04-25 11:51 39.64547 62.19932 38890 ft 518 kts 61°
2026-04-25 11:52 39.67626 62.28387 38894 ft 517 kts 61°
2026-04-25 11:52 39.70689 62.36824 38897 ft 516 kts 61°
2026-04-25 11:53 39.73745 62.45262 38900 ft 516 kts 61°
2026-04-25 11:53 39.76794 62.53707 38912 ft 516 kts 61°
2026-04-25 11:54 39.79811 62.62089 38908 ft 514 kts 61°
2026-04-25 11:55 39.84195 62.74869 38907 ft 517 kts 70°
2026-04-25 11:55 39.86139 62.83893 38909 ft 518 kts 73°
2026-04-25 11:56 39.87864 62.92931 38901 ft 517 kts 74°
2026-04-25 11:56 39.89551 63.02018 38895 ft 516 kts 74°
2026-04-25 11:57 39.91246 63.11107 38913 ft 517 kts 73°
2026-04-25 11:57 39.92946 63.20189 38903 ft 515 kts 73°
2026-04-25 11:58 39.94633 63.29231 38917 ft 513 kts 73°
2026-04-25 11:58 39.96312 63.38264 38903 ft 513 kts 73°
2026-04-25 11:59 39.97984 63.47301 38906 ft 512 kts 74°
2026-04-25 11:59 39.99641 63.56311 38908 ft 510 kts 74°
2026-04-25 12:00 40.02110 63.69805 38916 ft 510 kts 74°
2026-04-25 12:01 40.04567 63.83306 38915 ft 509 kts 74°
2026-04-25 12:01 40.06190 63.92281 38917 ft 508 kts 74°
2026-04-25 12:02 40.08614 64.05755 38922 ft 508 kts 74°
2026-04-25 12:02 40.10216 64.14719 38922 ft 506 kts 74°
2026-04-25 12:03 40.11806 64.23656 38925 ft 505 kts 74°
2026-04-25 12:03 40.13389 64.32593 38925 ft 505 kts 74°
2026-04-25 12:04 40.14964 64.41534 38934 ft 504 kts 74°
2026-04-25 12:04 40.16528 64.50455 38937 ft 503 kts 74°
2026-04-25 12:05 40.18085 64.59375 38942 ft 503 kts 75°
2026-04-25 12:05 40.19624 64.68238 38951 ft 503 kts 75°
2026-04-25 12:06 40.21167 64.77162 38966 ft 503 kts 75°
2026-04-25 12:06 40.22704 64.86101 38975 ft 503 kts 75°
2026-04-25 12:07 40.24234 64.95038 38980 ft 503 kts 75°
2026-04-25 12:07 40.25757 65.03984 38983 ft 503 kts 75°
2026-04-25 12:08 40.27274 65.12935 38991 ft 504 kts 75°
2026-04-25 12:08 40.28783 65.21889 38990 ft 504 kts 75°
2026-04-25 12:09 40.30286 65.30850 38992 ft 504 kts 75°
2026-04-25 12:09 40.31781 65.39809 38991 ft 503 kts 75°
2026-04-25 12:10 40.33270 65.48777 39002 ft 504 kts 75°
2026-04-25 12:10 40.34753 65.57752 38998 ft 504 kts 75°
2026-04-25 12:11 40.36231 65.66728 39001 ft 502 kts 75°
2026-04-25 12:11 40.37690 65.75643 39008 ft 499 kts 75°
2026-04-25 12:12 40.38895 65.83030 39015 ft 498 kts 75°
2026-04-25 12:12 40.40572 65.93364 39025 ft 498 kts 76°
2026-04-25 12:13 40.42007 66.02259 39015 ft 498 kts 76°
2026-04-25 12:13 40.43432 66.11143 39015 ft 497 kts 76°
2026-04-25 12:14 40.44851 66.20030 39015 ft 497 kts 76°
2026-04-25 12:14 40.46273 66.28910 39017 ft 497 kts 76°
2026-04-25 12:15 40.47690 66.37784 39016 ft 496 kts 76°
2026-04-25 12:15 40.49097 66.46647 39018 ft 496 kts 76°
2026-04-25 12:16 40.50498 66.55515 39015 ft 496 kts 76°
2026-04-25 12:16 40.51881 66.64330 38710 ft 486 kts 76°
2026-04-25 12:17 40.52557 66.68658 38439 ft 480 kts 76°
2026-04-25 12:17 40.53223 66.72924 38147 ft 473 kts 76°
2026-04-25 12:17 40.53882 66.77148 37882 ft 471 kts 76°
2026-04-25 12:17 40.54538 66.81370 37619 ft 472 kts 76°
2026-04-25 12:18 40.55194 66.85604 37348 ft 473 kts 76°
2026-04-25 12:18 40.55886 66.89827 37074 ft 472 kts 71°
2026-04-25 12:18 40.57051 66.93829 36814 ft 468 kts 65°
2026-04-25 12:18 40.58223 66.97822 36542 ft 468 kts 65°
2026-04-25 12:19 40.60210 67.04445 36109 ft 469 kts 65°
2026-04-25 12:19 40.61830 67.09772 35767 ft 469 kts 65°
2026-04-25 12:19 40.62636 67.12413 35592 ft 469 kts 65°
2026-04-25 12:20 40.63854 67.16402 35352 ft 470 kts 65°
2026-04-25 12:20 40.65072 67.20390 35094 ft 469 kts 65°
2026-04-25 12:20 40.66284 67.24364 34645 ft 467 kts 65°
2026-04-25 12:20 40.67498 67.28347 34023 ft 470 kts 65°
2026-04-25 12:21 40.68721 67.32359 33214 ft 474 kts 65°
2026-04-25 12:21 40.69951 67.36405 32481 ft 477 kts 65°
2026-04-25 12:21 40.71185 67.40470 31730 ft 479 kts 65°
2026-04-25 12:21 40.72426 67.44561 30953 ft 482 kts 65°
2026-04-25 12:22 40.73675 67.48690 30159 ft 486 kts 66°
2026-04-25 12:22 40.74824 67.52873 29643 ft 482 kts 69°
2026-04-25 12:22 40.75895 67.57018 29382 ft 472 kts 69°
2026-04-25 12:22 40.76929 67.61078 29107 ft 463 kts 70°
2026-04-25 12:23 40.77945 67.65084 28847 ft 459 kts 70°
2026-04-25 12:23 40.78955 67.69078 28585 ft 459 kts 70°
2026-04-25 12:23 40.79962 67.73067 28313 ft 457 kts 70°
2026-04-25 12:23 40.80962 67.77040 28045 ft 455 kts 70°
2026-04-25 12:24 40.81957 67.81000 27791 ft 453 kts 70°
2026-04-25 12:24 40.82944 67.84940 27531 ft 451 kts 70°
2026-04-25 12:24 40.83928 67.88870 27262 ft 450 kts 70°
2026-04-25 12:24 40.84906 67.92782 27003 ft 448 kts 70°
2026-04-25 12:25 40.85878 67.96680 26780 ft 446 kts 70°
2026-04-25 12:25 40.86845 68.00563 26525 ft 444 kts 70°
2026-04-25 12:25 40.87808 68.04434 26269 ft 442 kts 70°
2026-04-25 12:25 40.88751 68.08233 26031 ft 441 kts 70°
2026-04-25 12:26 40.89704 68.12076 25713 ft 439 kts 70°
2026-04-25 12:26 40.90648 68.15893 25174 ft 437 kts 71°
2026-04-25 12:26 40.91594 68.19720 24562 ft 438 kts 71°
2026-04-25 12:26 40.92539 68.23552 23932 ft 439 kts 71°
2026-04-25 12:27 40.93498 68.27447 23242 ft 440 kts 71°
2026-04-25 12:27 40.94430 68.31238 22586 ft 438 kts 71°
2026-04-25 12:27 40.95368 68.35058 21978 ft 435 kts 71°
2026-04-25 12:27 40.96297 68.38853 21394 ft 432 kts 71°
2026-04-25 12:28 40.97219 68.42622 20840 ft 428 kts 71°
2026-04-25 12:28 40.98131 68.46353 20266 ft 423 kts 72°
2026-04-25 12:28 40.99026 68.50025 19542 ft 415 kts 72°
2026-04-25 12:28 40.99901 68.53618 18907 ft 405 kts 72°
2026-04-25 12:29 41.00752 68.57122 18320 ft 395 kts 72°
2026-04-25 12:29 41.01579 68.60527 17678 ft 383 kts 72°
2026-04-25 12:29 41.02386 68.63857 17132 ft 379 kts 72°
2026-04-25 12:29 41.03190 68.67182 16558 ft 379 kts 72°
2026-04-25 12:30 41.03992 68.70500 15968 ft 378 kts 72°
2026-04-25 12:30 41.04794 68.73821 15392 ft 378 kts 72°
2026-04-25 12:30 41.05594 68.77141 14803 ft 378 kts 72°
2026-04-25 12:30 41.06393 68.80463 14224 ft 378 kts 72°
2026-04-25 12:31 41.07189 68.83778 13658 ft 377 kts 72°
2026-04-25 12:31 41.07977 68.87060 13016 ft 368 kts 72°
2026-04-25 12:31 41.08743 68.90250 12454 ft 360 kts 72°
2026-04-25 12:31 41.09499 68.93412 11906 ft 359 kts 72°
2026-04-25 12:32 41.10252 68.96567 11331 ft 359 kts 72°
2026-04-25 12:32 41.11005 68.99721 10745 ft 358 kts 72°
2026-04-25 12:32 41.11755 69.02868 10284 ft 355 kts 72°
2026-04-25 12:32 41.12481 69.05919 10201 ft 339 kts 72°
2026-04-25 12:33 41.13172 69.08833 10108 ft 324 kts 73°
2026-04-25 12:33 41.13675 69.11691 9959 ft 313 kts 80°
2026-04-25 12:33 41.14025 69.14534 9437 ft 310 kts 82°
2026-04-25 12:33 41.14339 69.17348 8965 ft 308 kts 82°
2026-04-25 12:34 41.14652 69.20162 8550 ft 308 kts 82°
2026-04-25 12:34 41.14963 69.22945 8174 ft 303 kts 82°
2026-04-25 12:34 41.15271 69.25693 7663 ft 299 kts 81°
2026-04-25 12:34 41.15472 69.27484 7360 ft 294 kts 81°
2026-04-25 12:35 41.15875 69.31074 6800 ft 294 kts 81°
2026-04-25 12:35 41.16177 69.33762 6416 ft 294 kts 81°
2026-04-25 12:35 41.16476 69.36427 5958 ft 290 kts 81°
2026-04-25 12:35 41.16767 69.39037 5513 ft 282 kts 81°
2026-04-25 12:36 41.17051 69.41577 5129 ft 276 kts 81°
2026-04-25 12:36 41.17329 69.44074 4732 ft 278 kts 81°
2026-04-25 12:36 41.17612 69.46615 4320 ft 279 kts 81°
2026-04-25 12:36 41.17979 69.49138 4037 ft 278 kts 71°
2026-04-25 12:37 41.18945 69.51306 3752 ft 274 kts 43°
2026-04-25 12:37 41.20564 69.52544 3508 ft 270 kts 13°
2026-04-25 12:37 41.22421 69.52667 3357 ft 268 kts 354°
2026-04-25 12:37 41.24276 69.52365 3328 ft 269 kts 349°
2026-04-25 12:38 41.26027 69.51607 3203 ft 262 kts 327°
2026-04-25 12:38 41.27203 69.49869 3055 ft 250 kts 294°
2026-04-25 12:38 41.27674 69.47749 3027 ft 229 kts 279°
2026-04-25 12:38 41.27776 69.45739 3046 ft 207 kts 265°
2026-04-25 12:39 41.27580 69.43947 3057 ft 185 kts 260°
2026-04-25 12:39 41.27392 69.42338 3058 ft 168 kts 262°
2026-04-25 12:39 41.27232 69.40843 3039 ft 159 kts 262°
2026-04-25 12:39 41.27085 69.39424 2883 ft 151 kts 262°
2026-04-25 12:40 41.26942 69.38097 2666 ft 140 kts 261°
2026-04-25 12:40 41.26804 69.36839 2470 ft 137 kts 262°
2026-04-25 12:40 41.26667 69.35589 2303 ft 137 kts 261°
2026-04-25 12:40 41.26534 69.34339 2106 ft 137 kts 262°
2026-04-25 12:41 41.26399 69.33081 1923 ft 137 kts 259°
2026-04-25 12:41 41.26241 69.31844 1693 ft 135 kts 262°
2026-04-25 12:41 41.26121 69.30608 1511 ft 135 kts 261°
2026-04-25 12:41 41.25983 69.29377 1403 ft 133 kts 261°
2026-04-25 12:42 41.25870 69.28334 1382 ft 79 kts 262°
2026-04-25 12:42 41.25836 69.28022 1383 ft 27 kts 262°
2026-04-25 12:42 41.25808 69.27767 1386 ft 20 kts 262°
2026-04-25 12:42 41.25793 69.27621 1383 ft 12 kts 262°
2026-04-25 12:43 41.25828 69.27515 1380 ft 14 kts 319°
2026-04-25 12:43 41.25899 69.27431 1380 ft 12 kts 319°
2026-04-25 12:43 41.26048 69.27260 1383 ft 16 kts 319°
2026-04-25 12:44 41.26110 69.27188 1381 ft 11 kts 319°
2026-04-25 12:44 41.26119 69.27097 1380 ft 11 kts 248°
2026-04-25 12:44 41.26069 69.26917 1380 ft 8 kts 244°
2026-04-25 12:45 41.26072 69.26895 1380 ft 3 kts 308°
2026-04-25 12:45 41.26096 69.26887 1381 ft 4 kts
2026-04-25 12:45 41.26168 69.26884 1380 ft 4 kts 356°
2026-04-25 12:46 41.26176 69.26883 1382 ft 0 kts 356°